FW0832 Weather Reports


time (UTC)temp
C
wind
direction
speed
KPH
gust
KPH
rain 1hr
cm
rain 24hr
cm
rain mn
cm
humidity
%
barometer
mb
20260901023016 20 218 0.0 0.0 0.00 0.03 0.00 86 1013.1
20260901021514 20 218 0.0 0.0 0.00 0.03 0.00 85 1012.9
20260901020011 21 218 0.0 0.0 0.00 0.03 0.00 84 1012.8
20260901013117 22 218 0.0 0.0 0.00 0.03 0.03 82 1012.2
20260901011557 23 218 0.0 0.0 0.00 0.03 0.03 79 1012.0
20260901010058 23 218 0.0 3.2 0.00 0.03 0.03 77 1011.9
20260901004555 24 218 0.0 0.0 0.00 0.03 0.03 77 1012.0
20260901003055 25 218 0.0 3.2 0.00 0.03 0.03 75 1012.0
20260901001559 26 218 0.0 0.0 0.00 0.03 0.03 74 1012.0
20260831234608 27 218 0.0 1.6 0.00 0.03 0.03 67 1012.0
20260831233057 27 218 1.6 6.4 0.00 0.03 0.03 63 1012.1
20260831231554 27 265 1.6 6.4 0.00 0.03 0.03 64 1012.2
20260831230052 27 265 1.6 6.4 0.00 0.03 0.03 64 1012.2
20260831224552 27 265 3.2 6.4 0.00 0.03 0.03 62 1012.1
20260831223057 27 265 3.2 4.8 0.00 0.03 0.03 58 1012.1
20260831221552 27 265 1.6 4.8 0.00 0.03 0.03 60 1012.2
20260831220053 27 265 3.2 6.4 0.00 0.03 0.03 61 1012.2
20260831214602 27 263 3.2 6.4 0.00 0.05 0.03 58 1012.2
20260831213052 27 264 3.2 9.7 0.00 0.05 0.03 58 1012.3
20260831211549 27 261 4.8 9.7 0.00 0.05 0.03 58 1012.4
20260831210047 27 298 3.2 6.4 0.00 0.05 0.03 58 1012.5
20260831204549 27 298 4.8 14.5 0.00 0.05 0.03 55 1012.4
20260831203049 26 298 4.8 12.9 0.00 0.05 0.03 56 1012.3
20260831201549 27 289 8.0 12.9 0.00 0.05 0.03 57 1012.3
20260831200044 26 273 8.0 16.1 0.00 0.05 0.03 60 1012.4
20260831194545 26 283 4.8 14.5 0.00 0.05 0.03 63 1012.4
20260831193111 26 296 4.8 12.9 0.00 0.05 0.03 60 1012.4
20260831191540 26 302 4.8 9.7 0.00 0.05 0.03 65 1012.4
20260831190043 26 276 8.0 12.9 0.00 0.05 0.03 63 1012.6
20260831184533 25 279 6.4 12.9 0.00 0.05 0.03 64 1012.6
20260831183031 25 290 4.8 14.5 0.00 0.05 0.03 65 1012.5
20260831181544 25 269 6.4 12.9 0.00 0.05 0.03 68 1012.5
20260831180035 24 275 4.8 6.4 0.00 0.05 0.03 66 1012.4
20260831174527 24 273 0.0 8.0 0.00 0.05 0.03 68 1012.4
20260831173024 23 302 3.2 8.0 0.00 0.05 0.03 70 1012.5
20260831171522 23 277 3.2 11.3 0.00 0.05 0.03 74 1012.5
20260831170020 23 298 3.2 6.4 0.00 0.05 0.03 75 1012.4
20260831164515 23 298 0.0 6.4 0.00 0.05 0.03 78 1012.4
20260831163015 22 311 1.6 6.4 0.00 0.05 0.03 80 1012.6
20260831161515 22 271 1.6 6.4 0.00 0.05 0.03 81 1012.5
20260831160014 21 307 1.6 8.0 0.00 0.05 0.03 83 1012.5
20260831154509 21 307 1.6 8.0 0.00 0.05 0.03 85 1012.6
20260831153006 20 307 1.6 8.0 0.03 0.05 0.03 87 1012.2
20260831151506 20 311 4.8 11.3 0.03 0.05 0.03 88 1012.1
20260831150005 20 318 4.8 12.9 0.03 0.08 0.03 90 1012.1
20260831144507 19 319 4.8 12.9 0.03 0.08 0.03 91 1012.2
20260831143005 18 267 4.8 12.9 0.00 0.05 0.00 92 1012.1
20260831141503 18 302 3.2 12.9 0.00 0.05 0.00 92 1012.1
20260831140002 18 306 4.8 12.9 0.00 0.05 0.00 92 1012.0
20260831134606 18 300 6.4 12.9 0.00 0.05 0.00 92 1011.6
20260831133058 18 306 4.8 12.9 0.00 0.05 0.00 92 1011.5
20260831131602 18 293 3.2 9.7 0.00 0.05 0.00 92 1011.1
20260831130100 18 311 3.2 12.9 0.00 0.05 0.00 92 1010.7
20260831124552 18 320 3.2 14.5 0.00 0.05 0.00 92 1010.5
20260831123048 18 284 9.7 16.1 0.00 0.05 0.00 91 1010.2
20260831121547 19 304 4.8 16.1 0.00 0.05 0.00 90 1010.2
20260831120043 19 305 3.2 12.9 0.00 0.05 0.00 89 1009.9
20260831114540 20 297 3.2 8.0 0.00 0.05 0.00 89 1009.7
20260831113044 20 317 1.6 9.7 0.00 0.05 0.00 89 1009.4
20260831111634 20 317 1.6 8.0 0.00 0.05 0.00 89 1009.1
20260831110033 20 313 3.2 8.0 0.00 0.05 0.00 89 1008.6
20260831104536 21 334 1.6 8.0 0.00 0.05 0.00 89 1008.4
20260831103028 21 290 1.6 16.1 0.00 0.05 0.00 89 1008.2
20260831101527 21 347 3.2 12.9 0.00 0.05 0.00 89 1008.1
20260831100032 21 321 3.2 9.7 0.00 0.05 0.00 89 1008.0
20260831094532 21 315 0.0 6.4 0.00 0.05 0.00 90 1007.9
20260831093042 21 304 1.6 12.9 0.00 0.05 0.00 91 1007.6
20260831091522 21 302 4.8 12.9 0.00 0.05 0.00 92 1007.4
20260831090020 21 332 4.8 9.7 0.00 0.05 0.00 92 1007.2
20260831084516 22 348 3.2 9.7 0.00 0.05 0.00 92 1006.9
20260831083014 22 343 3.2 12.9 0.00 0.05 0.00 92 1006.8
20260831081514 22 334 4.8 16.1 0.00 0.05 0.00 92 1006.7
20260831080012 22 355 1.6 12.9 0.00 0.05 0.00 90 1006.7
20260831074510 22 343 4.8 19.3 0.00 0.05 0.00 90 1006.7
20260831073006 22 309 4.8 12.9 0.00 0.05 0.00 88 1006.5
20260831071502 22 309 3.2 12.9 0.00 0.05 0.00 86 1006.2
20260831070002 22 292 6.4 12.9 0.00 0.05 0.00 85 1006.4
20260831064559 22 275 4.8 12.9 0.00 0.05 0.00 84 1006.5
20260831063108 22 307 3.2 12.9 0.00 0.05 0.00 85 1006.5
20260831061552 22 240 3.2 8.0 0.00 0.05 0.00 83 1006.2
20260831060049 22 234 3.2 16.1 0.00 0.05 0.00 85 1005.9
20260831054546 21 220 1.6 8.0 0.00 0.08 0.00 84 1005.8
20260831053122 21 212 3.2 8.0 0.00 0.08 0.00 84 1005.6
20260831051543 21 210 4.8 11.3 0.00 0.08 0.00 84 1005.5
20260831050041 21 225 6.4 11.3 0.00 0.08 0.00 85 1005.4
20260831044634 21 211 3.2 9.7 0.00 0.08 0.08 85 1005.3
20260831043040 22 207 4.8 8.0 0.00 0.08 0.08 86 1005.2
20260831041540 22 213 3.2 8.0 0.00 0.08 0.08 87 1005.4
20260831040038 22 186 4.8 6.4 0.00 0.08 0.08 88 1005.5
20260831034536 23 169 1.6 6.4 0.00 0.08 0.08 88 1005.3
20260831033052 23 157 1.6 4.8 0.00 0.08 0.08 88 1005.3
20260831031538 23 156 0.0 1.6 0.00 0.08 0.08 88 1005.1
20260831030035 24 156 0.0 3.2 0.00 0.08 0.08 87 1004.9
20260831024535 25 156 0.0 0.0 0.00 0.08 0.08 87 1004.8